Time,TemperatureF,DewpointF,PressureIn,WindDirection,WindDirectionDegrees,WindSpeedMPH,WindSpeedGustMPH,Humidity,HourlyPrecipIn,Conditions,Clouds,dailyrainin,SoftwareType,DateUTC
2013-02-28 00:14:00,27.6,23.0,30.13,SSE,166,8.0,10.0,81,0.00,,,0.00,weatherlink.com 1.10,2013-02-28 06:14:00,
2013-02-28 00:29:00,27.7,23.0,30.13,SSE,153,7.0,10.0,81,0.00,,,0.00,weatherlink.com 1.10,2013-02-28 06:29:00,
2013-02-28 00:44:00,27.7,23.0,30.14,SE,139,7.0,10.0,81,0.00,,,0.00,weatherlink.com 1.10,2013-02-28 06:44:00,
2013-02-28 00:59:00,27.7,22.0,30.14,SE,142,5.0,9.0,80,0.00,,,0.00,weatherlink.com 1.10,2013-02-28 06:59:00,
2013-02-28 01:14:00,27.6,22.0,30.14,South,170,6.0,10.0,80,0.00,,,0.00,weatherlink.com 1.10,2013-02-28 07:14:00,
2013-02-28 01:29:00,27.5,22.0,30.15,SE,145,3.0,8.0,81,0.00,,,0.00,weatherlink.com 1.10,2013-02-28 07:29:00,
2013-02-28 01:44:00,27.5,22.0,30.15,SSE,161,4.0,6.0,81,0.00,,,0.00,weatherlink.com 1.10,2013-02-28 07:44:00,
2013-02-28 01:59:00,27.7,23.0,30.15,South,171,4.0,5.0,81,0.00,,,0.00,weatherlink.com 1.10,2013-02-28 07:59:00,
2013-02-28 02:14:00,27.7,23.0,30.15,SE,143,2.0,7.0,81,0.00,,,0.00,weatherlink.com 1.10,2013-02-28 08:14:00,
2013-02-28 02:30:00,27.8,23.0,30.15,SE,146,3.0,6.0,82,0.00,,,0.00,weatherlink.com 1.10,2013-02-28 08:30:00,
2013-02-28 02:45:00,27.9,23.0,30.15,SSE,147,4.0,5.0,82,0.00,,,0.00,weatherlink.com 1.10,2013-02-28 08:45:00,
2013-02-28 03:00:00,28.2,23.0,30.15,SSE,160,3.0,6.0,81,0.00,,,0.00,weatherlink.com 1.10,2013-02-28 09:00:00,
2013-02-28 03:15:00,28.3,23.0,30.16,SSE,152,3.0,6.0,81,0.00,,,0.00,weatherlink.com 1.10,2013-02-28 09:15:00,
2013-02-28 03:30:00,28.4,23.0,30.16,SSE,159,5.0,6.0,81,0.00,,,0.00,weatherlink.com 1.10,2013-02-28 09:30:00,
2013-02-28 03:45:00,28.5,23.0,30.16,SSE,159,5.0,6.0,80,0.00,,,0.00,weatherlink.com 1.10,2013-02-28 09:45:00,
2013-02-28 04:00:00,28.7,23.0,30.17,SSE,163,8.0,9.0,80,0.00,,,0.00,weatherlink.com 1.10,2013-02-28 10:00:00,
2013-02-28 04:15:00,28.9,23.0,30.17,SSE,160,6.0,10.0,79,0.00,,,0.00,weatherlink.com 1.10,2013-02-28 10:15:00,
2013-02-28 04:30:00,29.1,23.0,30.18,SSE,165,7.0,10.0,79,0.00,,,0.00,weatherlink.com 1.10,2013-02-28 10:30:00,
2013-02-28 04:45:00,29.1,23.0,30.18,South,184,6.0,10.0,79,0.00,,,0.00,weatherlink.com 1.10,2013-02-28 10:45:00,
2013-02-28 05:00:00,29.1,24.0,30.18,SSE,167,7.0,10.0,80,0.00,,,0.00,weatherlink.com 1.10,2013-02-28 11:00:00,
2013-02-28 05:15:00,29.0,24.0,30.19,SSE,154,4.0,11.0,80,0.00,,,0.00,weatherlink.com 1.10,2013-02-28 11:15:00,
2013-02-28 05:30:00,28.8,24.0,30.20,South,181,5.0,10.0,81,0.00,,,0.00,weatherlink.com 1.10,2013-02-28 11:30:00,
2013-02-28 05:45:00,28.8,23.0,30.20,South,172,14.0,14.0,80,0.00,,,0.00,weatherlink.com 1.10,2013-02-28 11:45:00,
2013-02-28 06:00:00,28.7,23.0,30.20,South,191,7.0,13.0,79,0.00,,,0.00,weatherlink.com 1.10,2013-02-28 12:00:00,
2013-02-28 06:15:00,28.5,23.0,30.20,South,169,12.0,15.0,79,0.00,,,0.00,weatherlink.com 1.10,2013-02-28 12:15:00,
2013-02-28 06:30:00,28.2,22.0,30.21,South,169,7.0,12.0,79,0.00,,,0.00,weatherlink.com 1.10,2013-02-28 12:30:00,
2013-02-28 06:45:00,28.1,22.0,30.21,SSW,207,6.0,10.0,79,0.00,,,0.00,weatherlink.com 1.10,2013-02-28 12:45:00,
2013-02-28 07:00:00,28.0,22.0,30.22,South,173,8.0,10.0,79,0.00,,,0.00,weatherlink.com 1.10,2013-02-28 13:00:00,
2013-02-28 07:15:00,28.0,23.0,30.22,SSW,193,5.0,10.0,80,0.00,,,0.00,weatherlink.com 1.10,2013-02-28 13:15:00,
2013-02-28 07:30:00,27.9,23.0,30.22,South,190,7.0,11.0,80,0.00,,,0.00,weatherlink.com 1.10,2013-02-28 13:30:00,
2013-02-28 07:45:00,27.8,22.0,30.22,SSW,208,5.0,11.0,80,0.00,,,0.00,weatherlink.com 1.10,2013-02-28 13:45:00,
2013-02-28 08:00:00,27.7,22.0,30.23,SSW,210,7.0,11.0,80,0.00,,,0.00,weatherlink.com 1.10,2013-02-28 14:00:00,
2013-02-28 08:15:00,27.7,22.0,30.23,SSW,197,6.0,12.0,80,0.00,,,0.00,weatherlink.com 1.10,2013-02-28 14:15:00,
2013-02-28 08:30:00,27.8,22.0,30.23,SSW,201,10.0,11.0,79,0.00,,,0.00,weatherlink.com 1.10,2013-02-28 14:30:00,
2013-02-28 08:45:00,27.9,22.0,30.24,SSE,150,5.0,10.0,79,0.00,,,0.00,weatherlink.com 1.10,2013-02-28 14:45:00,
2013-02-28 09:00:00,27.8,22.0,30.24,SE,146,6.0,11.0,78,0.00,,,0.00,weatherlink.com 1.10,2013-02-28 15:00:00,
2013-02-28 09:15:00,27.7,21.0,30.24,South,169,7.0,12.0,77,0.00,,,0.00,weatherlink.com 1.10,2013-02-28 15:15:00,
2013-02-28 09:30:00,27.7,22.0,30.25,SSW,193,8.0,12.0,78,0.00,,,0.00,weatherlink.com 1.10,2013-02-28 15:30:00,
2013-02-28 09:45:00,27.6,22.0,30.25,SSW,201,5.0,11.0,78,0.00,,,0.00,weatherlink.com 1.10,2013-02-28 15:45:00,
2013-02-28 10:01:00,27.7,21.0,30.25,SSW,193,8.0,12.0,77,0.00,,,0.00,weatherlink.com 1.10,2013-02-28 16:01:00,
2013-02-28 10:16:00,27.8,21.0,30.26,SSW,210,6.0,11.0,75,0.00,,,0.00,weatherlink.com 1.10,2013-02-28 16:16:00,
2013-02-28 10:31:00,27.8,21.0,30.26,SSW,200,6.0,10.0,76,0.00,,,0.00,weatherlink.com 1.10,2013-02-28 16:31:00,
2013-02-28 10:46:00,28.1,21.0,30.26,SSW,193,9.0,12.0,76,0.00,,,0.00,weatherlink.com 1.10,2013-02-28 16:46:00,
2013-02-28 11:01:00,28.0,21.0,30.26,SSE,158,7.0,12.0,75,0.00,,,0.00,weatherlink.com 1.10,2013-02-28 17:01:00,
2013-02-28 11:16:00,28.1,21.0,30.26,SSW,207,5.0,14.0,74,0.00,,,0.00,weatherlink.com 1.10,2013-02-28 17:16:00,
2013-02-28 11:31:00,28.2,22.0,30.26,South,174,6.0,13.0,76,0.00,,,0.00,weatherlink.com 1.10,2013-02-28 17:31:00,
2013-02-28 11:46:00,28.2,21.0,30.26,SSE,153,9.0,11.0,75,0.00,,,0.00,weatherlink.com 1.10,2013-02-28 17:46:00,
2013-02-28 12:01:00,28.2,22.0,30.26,SSW,208,5.0,11.0,76,0.00,,,0.00,weatherlink.com 1.10,2013-02-28 18:01:00,
2013-02-28 12:16:00,28.2,21.0,30.26,SSW,194,9.0,12.0,75,0.00,,,0.00,weatherlink.com 1.10,2013-02-28 18:16:00,
2013-02-28 12:31:00,28.5,22.0,30.25,South,186,7.0,10.0,75,0.00,,,0.00,weatherlink.com 1.10,2013-02-28 18:31:00,
2013-02-28 12:46:00,28.8,22.0,30.25,South,190,5.0,11.0,74,0.00,,,0.00,weatherlink.com 1.10,2013-02-28 18:46:00,
2013-02-28 13:01:00,28.9,21.0,30.25,WSW,241,12.0,12.0,73,0.00,,,0.00,weatherlink.com 1.10,2013-02-28 19:01:00,
2013-02-28 13:16:00,28.9,21.0,30.25,SSW,211,6.0,11.0,72,0.00,,,0.00,weatherlink.com 1.10,2013-02-28 19:16:00,
2013-02-28 13:31:00,28.8,21.0,30.25,SSW,195,8.0,12.0,73,0.00,,,0.00,weatherlink.com 1.10,2013-02-28 19:31:00,
2013-02-28 13:46:00,28.6,21.0,30.25,SW,217,8.0,12.0,74,0.00,,,0.00,weatherlink.com 1.10,2013-02-28 19:46:00,
2013-02-28 14:01:00,28.6,21.0,30.25,South,184,8.0,13.0,74,0.00,,,0.00,weatherlink.com 1.10,2013-02-28 20:01:00,
2013-02-28 14:16:00,28.6,21.0,30.24,SSW,212,6.0,11.0,73,0.00,,,0.00,weatherlink.com 1.10,2013-02-28 20:16:00,
2013-02-28 14:31:00,28.7,21.0,30.24,South,169,4.0,11.0,73,0.00,,,0.00,weatherlink.com 1.10,2013-02-28 20:31:00,
2013-02-28 14:46:00,28.6,21.0,30.24,SSW,212,7.0,12.0,73,0.00,,,0.00,weatherlink.com 1.10,2013-02-28 20:46:00,
2013-02-28 15:01:00,28.5,21.0,30.25,South,189,5.0,13.0,73,0.00,,,0.00,weatherlink.com 1.10,2013-02-28 21:01:00,
2013-02-28 15:16:00,28.5,21.0,30.25,SSW,207,11.0,13.0,73,0.00,,,0.00,weatherlink.com 1.10,2013-02-28 21:16:00,
2013-02-28 15:31:00,28.6,21.0,30.25,SSW,194,8.0,13.0,73,0.00,,,0.00,weatherlink.com 1.10,2013-02-28 21:31:00,
2013-02-28 15:46:00,28.4,21.0,30.25,SW,215,12.0,13.0,73,0.00,,,0.00,weatherlink.com 1.10,2013-02-28 21:46:00,
2013-02-28 16:01:00,28.3,21.0,30.25,SSW,207,8.0,10.0,73,0.00,,,0.00,weatherlink.com 1.10,2013-02-28 22:01:00,
2013-02-28 16:17:00,28.2,21.0,30.26,SSW,200,7.0,12.0,74,0.00,,,0.00,weatherlink.com 1.10,2013-02-28 22:17:00,
2013-02-28 16:31:00,28.0,20.0,30.26,SW,228,7.0,11.0,72,0.00,,,0.00,weatherlink.com 1.10,2013-02-28 22:31:00,
2013-02-28 16:46:00,27.9,20.0,30.26,SSW,210,9.0,11.0,72,0.00,,,0.00,weatherlink.com 1.10,2013-02-28 22:46:00,
2013-02-28 17:01:00,27.9,19.0,30.26,SSW,204,10.0,15.0,70,0.00,,,0.00,weatherlink.com 1.10,2013-02-28 23:01:00,
2013-02-28 17:16:00,27.8,20.0,30.27,SW,225,8.0,12.0,71,0.00,,,0.00,weatherlink.com 1.10,2013-02-28 23:16:00,
2013-02-28 17:31:00,27.8,20.0,30.27,SSW,205,8.0,11.0,71,0.00,,,0.00,weatherlink.com 1.10,2013-02-28 23:31:00,
2013-02-28 17:46:00,27.8,20.0,30.27,SSW,212,7.0,10.0,71,0.00,,,0.00,weatherlink.com 1.10,2013-02-28 23:46:00,
2013-02-28 18:01:00,27.6,19.0,30.27,SW,218,5.0,9.0,71,0.00,,,0.00,weatherlink.com 1.10,2013-03-01 00:01:00,
2013-02-28 18:16:00,27.5,19.0,30.27,SSW,210,4.0,8.0,71,0.00,,,0.00,weatherlink.com 1.10,2013-03-01 00:16:00,
2013-02-28 18:31:00,26.7,18.0,30.28,South,191,4.0,10.0,71,0.00,,,0.00,weatherlink.com 1.10,2013-03-01 00:31:00,
2013-02-28 18:46:00,26.1,18.0,30.29,SSE,164,5.0,8.0,72,0.00,,,0.00,weatherlink.com 1.10,2013-03-01 00:46:00,
2013-02-28 19:01:00,25.7,18.0,30.29,SSE,150,2.0,6.0,72,0.00,,,0.00,weatherlink.com 1.10,2013-03-01 01:01:00,
2013-02-28 19:16:00,25.2,18.0,30.29,South,187,3.0,6.0,73,0.00,,,0.00,weatherlink.com 1.10,2013-03-01 01:16:00,
2013-02-28 19:32:00,24.7,18.0,30.29,South,170,3.0,4.0,74,0.00,,,0.00,weatherlink.com 1.10,2013-03-01 01:32:00,
2013-02-28 19:47:00,24.4,18.0,30.29,SSW,194,5.0,5.0,75,0.00,,,0.00,weatherlink.com 1.10,2013-03-01 01:47:00,
2013-02-28 20:02:00,24.0,17.0,30.30,South,190,4.0,6.0,75,0.00,,,0.00,weatherlink.com 1.10,2013-03-01 02:02:00,
2013-02-28 20:17:00,23.7,17.0,30.30,South,181,3.0,5.0,76,0.00,,,0.00,weatherlink.com 1.10,2013-03-01 02:17:00,
2013-02-28 20:32:00,23.3,17.0,30.30,South,177,3.0,5.0,77,0.00,,,0.00,weatherlink.com 1.10,2013-03-01 02:32:00,
2013-02-28 20:47:00,23.1,17.0,30.30,South,181,4.0,6.0,77,0.00,,,0.00,weatherlink.com 1.10,2013-03-01 02:47:00,
2013-02-28 21:02:00,23.1,17.0,30.30,SSE,160,5.0,7.0,77,0.00,,,0.00,weatherlink.com 1.10,2013-03-01 03:02:00,
2013-02-28 21:17:00,22.6,16.0,30.31,South,173,5.0,7.0,77,0.00,,,0.00,weatherlink.com 1.10,2013-03-01 03:17:00,
2013-02-28 21:32:00,22.2,16.0,30.31,SSW,204,5.0,9.0,76,0.00,,,0.00,weatherlink.com 1.10,2013-03-01 03:32:00,
2013-02-28 21:47:00,21.9,15.0,30.31,SW,219,6.0,9.0,76,0.00,,,0.00,weatherlink.com 1.10,2013-03-01 03:47:00,
2013-02-28 22:02:00,21.6,15.0,30.31,South,181,2.0,6.0,76,0.00,,,0.00,weatherlink.com 1.10,2013-03-01 04:02:00,
2013-02-28 22:17:00,21.2,15.0,30.31,SSW,200,6.0,7.0,77,0.00,,,0.00,weatherlink.com 1.10,2013-03-01 04:17:00,
2013-02-28 22:32:00,21.1,15.0,30.31,South,186,4.0,7.0,77,0.00,,,0.00,weatherlink.com 1.10,2013-03-01 04:32:00,
2013-02-28 22:47:00,21.0,15.0,30.32,SSW,208,7.0,10.0,77,0.00,,,0.00,weatherlink.com 1.10,2013-03-01 04:47:00,
2013-02-28 23:02:00,21.4,15.0,30.32,SSW,198,5.0,13.0,76,0.00,,,0.00,weatherlink.com 1.10,2013-03-01 05:02:00,
2013-02-28 23:17:00,20.9,14.0,30.32,SSW,205,3.0,10.0,76,0.00,,,0.00,weatherlink.com 1.10,2013-03-01 05:17:00,
2013-02-28 23:32:00,20.7,15.0,30.32,SSW,205,5.0,8.0,77,0.00,,,0.00,weatherlink.com 1.10,2013-03-01 05:32:00,
2013-02-28 23:47:00,20.8,15.0,30.32,SW,233,10.0,10.0,78,0.00,,,0.00,weatherlink.com 1.10,2013-03-01 05:47:00,